Regional Weather Roundup
Issued by NWS

Home | Current Version | Previous Version | Text Only | Print | Product List | Glossary Off
Versions: 1 2 3 4 5 6 7 8 9 10 11 12 13 14 15 16 17 18 19 20 21 22 23 24 25 26 27 28 29 30 31 32 33 34 35 36 37 38 39 40 41 42 43 44 45 46 47 48 49 50

000
ASUS45 KCYS 020110
RWRWY

WYOMING REGIONAL WEATHER ROUNDUP
NATIONAL WEATHER SERVICE CHEYENNE WY
700 PM MDT MON JUN 01 2015

NOTE:  "FAIR" INDICATES FEW OR NO CLOUDS BELOW 12,000 FEET
WITH NO SIGNIFICANT WEATHER AND/OR OBSTRUCTIONS TO VISIBILITY.

WYZ001-020200-
...YELLOWSTONE NATIONAL PARK...

CITY           SKY/WX    TMP DP  RH WIND       PRES   REMARKS
LK YELLOWSTONE   N/A     51  40  65 W17G43    30.15R
W YELLOWSTONE  NOT AVBL

$$
WYZ002>013-054>058-071-098>099-020200-
...NORTHERN WYOMING...

CITY           SKY/WX    TMP DP  RH WIND       PRES   REMARKS
JACKSON        PTSUNNY   59  41  51 S5G17     30.09R
CODY           CLOUDY    68  48  49 S7        29.84F
GREYBULL       LGT RAIN  69  49  48 E24G32    29.77F
WORLAND        CLOUDY    71  46  40 NW3       29.80F
SHERIDAN       CLOUDY    71  62  73 W12       29.77F
BUFFALO        TSTM      64  49  57 SW37G54   29.86F
GILLETTE         N/A     78  61  55 S7        29.81F
HULETT         FAIR      79  55  44 SE7       29.83F
NEWCASTLE      FAIR      75  50  41 MISG      29.87R

$$
WYZ014>020-022>026-101>103-020200-
...CENTRAL WYOMING...

CITY           SKY/WX    TMP DP  RH WIND       PRES   REMARKS
BIG PINEY      PTSUNNY   67  36  31 S10       29.98F
PINEDALE       PTSUNNY   66  32  28 S15       30.00S
DUBOIS         PTSUNNY   64  34  32 SE13      29.97S
LANDER         CLOUDY    68  43  40 S6        29.88F
RIVERTON       CLOUDY    69  48  47 E8        29.90F
CASPER         CLOUDY    66  49  54 S7        29.95R
DOUGLAS        TSTM      62  52  69 SW13G31   30.01R

$$
WYZ021-027>030-104>119-020200-
...SOUTHERN WYOMING...

CITY           SKY/WX    TMP DP  RH WIND       PRES   REMARKS
EVANSTON       MOSUNNY   72  26  18 SW21G36   30.00R
KEMMERER       MOSUNNY   70  30  23 W28G41    30.03R
FORT BRIDGER   FAIR      76  33  20 SW15      30.02S
ROCK SPRINGS   CLOUDY    65  36  34 NE7       30.01F
DIXON          FAIR      78  32  18 SW14      30.01F
RAWLINS        PTSUNNY   64  47  53 N16       30.01F
SARATOGA       FAIR      70  37  30 SE18G24   30.04F
LARAMIE        CLOUDY    62  45  53 SE8       30.10R
CHEYENNE       CLOUDY    67  47  48 W6        30.05F
TORRINGTON     CLOUDY    72  55  55 S6        29.91R
PINE BLUFFS    FAIR      64  52  63 S17G25    30.01R

$$



USA.gov is the U.S. government's official web portal to all federal, state and local government web resources and services.